Heraklion, Greece

10:45 AM EEST on March 28, 2017 (GMT +0300)
Nikos Kazantzakis

Weather History for LGIR - February, 2013

Change the Weather History Date:

Thursday, February 14, 2013

  Actual Average Record
Temperature  
Mean Temperature 54 °F -  
Max Temperature 58 °F 61 °F 73 °F (2016)
Min Temperature 50 °F 49 °F 32 °F (2004)
Degree Days  
Heating Degree Days 11    
Growing Degree Days 4 (Base 50)    
Moisture  
Dew Point 47 °F    
Average Humidity 77    
Maximum Humidity 94    
Minimum Humidity 63    
Precipitation  
Precipitation 0.35 in 0.09 in - ()
Sea Level Pressure  
Sea Level Pressure 29.75 in    
Wind  
Wind Speed 8 mph ()    
Max Wind Speed 17 mph    
Max Gust Speed 25 mph    
Visibility 6.0 miles    
Events Rain , Thunderstorm    
Averages and records for this station are not official NWS values.
T = Trace of Precipitation, MM = Missing Value Source: Averaged Metar Reports

Daily Weather History Graph

Daily Weather History Graph

Search for Another Location

Airport or City:

Trip Planner

Search our weather history database for the weather conditions in past years. The results will help you decide how hot, cold, wet, or windy it might be!

Date:

Astronomy

Feb. 14, 2013 Rise Set
Actual Time 7:06 AM EET 6:00 PM EET
Civil Twilight 6:40 AM EET 6:26 PM EET
Nautical Twilight 6:10 AM EET 6:56 PM EET
Astronomical Twilight 5:41 AM EET 7:26 PM EET
Moon 9:09 AM EET (2/14) 10:31 PM EET (2/14)
Length of Visible Light 11h 45m
Length of Day
10h 53m
Waxing Crescent, 19% of the Moon is Illuminated
Feb 14
Waxing Crescent
Feb 17
First Quarter
Feb 25
Full
Mar 4
Last Quarter
Mar 11
New

Hourly Weather History & Observations

Time (EET) Temp. Dew Point Humidity Pressure Visibility Wind Dir Wind Speed Gust Speed Precip Events Conditions
12:20 AM 53.6 °F 46.4 °F 77% 29.89 in 6.2 mi South 4.6 mph - N/A   Scattered Clouds
12:50 AM 55.4 °F 46.4 °F 72% 29.89 in 6.2 mi SSW 6.9 mph - N/A   Scattered Clouds
1:20 AM 55.4 °F 46.4 °F 72% 29.89 in 6.2 mi South 8.1 mph - N/A   Scattered Clouds
1:50 AM 53.6 °F 46.4 °F 77% 29.86 in 6.2 mi South 6.9 mph - N/A   Scattered Clouds
2:00 AM 54 °F 47 °F 70% 29.87 in 6 mi South 6.9 mph - -   Partly Cloudy
2:20 AM 53.6 °F 46.4 °F 77% 29.86 in 6.2 mi South 3.5 mph - N/A   Scattered Clouds
2:50 AM 53.6 °F 46.4 °F 77% 29.86 in 6.2 mi SE 8.1 mph - N/A   Scattered Clouds
3:20 AM 53.6 °F 46.4 °F 77% 29.86 in 6.2 mi SE 6.9 mph - N/A   Scattered Clouds
3:50 AM 53.6 °F 51.8 °F 94% 29.86 in 6.2 mi SSE 4.6 mph - N/A   Scattered Clouds
4:20 AM 53.6 °F 51.8 °F 94% 29.86 in 6.2 mi South 3.5 mph - N/A   Scattered Clouds
4:50 AM 55.4 °F 48.2 °F 77% 29.80 in 6.2 mi South 6.9 mph - N/A   Scattered Clouds
5:20 AM 57.2 °F 48.2 °F 72% 29.80 in 6.2 mi South 8.1 mph - N/A   Scattered Clouds
6:20 AM 57.2 °F 44.6 °F 63% 29.80 in 6.2 mi South 16.1 mph - N/A   Mostly Cloudy
6:50 AM 57.2 °F 44.6 °F 63% 29.80 in 6.2 mi South 6.9 mph - N/A Rain Light Rain
7:20 AM 57.2 °F 46.4 °F 67% 29.80 in 6.2 mi South 8.1 mph - N/A   Mostly Cloudy
7:50 AM 53.6 °F 50.0 °F 88% 29.77 in 6.2 mi SSE 8.1 mph - N/A Rain Light Rain
8:00 AM 54 °F 50 °F 82% 29.79 in 6 mi SSE 8.1 mph - - Rain Light Rain
8:20 AM 53.6 °F 50.0 °F 88% 29.77 in 6.2 mi SSE 16.1 mph - N/A Rain Light Rain
8:50 AM 57.2 °F 48.2 °F 72% 29.77 in 6.2 mi South 12.7 mph - N/A   Mostly Cloudy
9:20 AM 57.2 °F 50.0 °F 77% 29.77 in 5.6 mi SSE 13.8 mph - N/A Rain Light Rain
9:50 AM 55.4 °F 50.0 °F 82% 29.77 in 5.6 mi SSE 8.1 mph - N/A Rain Light Rain
10:20 AM 53.6 °F 51.8 °F 94% 29.77 in 4.3 mi WSW 15.0 mph - N/A Rain , Thunderstorm Light Thunderstorms and Rain
10:50 AM 50.0 °F 46.4 °F 87% 29.80 in 3.7 mi South 8.1 mph - N/A Rain , Thunderstorm Light Thunderstorms and Rain
11:20 AM 50.0 °F 46.4 °F 87% 29.80 in 3.7 mi South 13.8 mph - N/A Rain Light Rain
11:50 AM 50.0 °F 46.4 °F 87% 29.77 in 3.7 mi South 17.3 mph - N/A Rain Light Rain
12:20 PM 50.0 °F 46.4 °F 87% 29.74 in 4.3 mi South 10.4 mph - N/A Rain Light Rain
12:50 PM 53.6 °F 48.2 °F 82% 29.71 in 6.2 mi SSE 11.5 mph - N/A   Mostly Cloudy
1:20 PM 57.2 °F 50.0 °F 77% 29.71 in 6.2 mi SE 9.2 mph - N/A   Scattered Clouds
1:50 PM 57.2 °F 50.0 °F 77% 29.68 in 6.2 mi SW 13.8 mph - N/A   Scattered Clouds
2:00 PM 57 °F 49 °F 67% 29.71 in 6 mi SW 13.8 mph - -  
2:20 PM 57.2 °F 50.0 °F 77% 29.68 in 6.2 mi SW 13.8 mph - N/A   Scattered Clouds
2:50 PM 59.0 °F 46.4 °F 63% 29.68 in 6.2 mi SSW 11.5 mph - N/A   Scattered Clouds
3:20 PM 59.0 °F 46.4 °F 63% 29.68 in 6.2 mi SSW 11.5 mph - N/A   Scattered Clouds
3:50 PM 53.6 °F 46.4 °F 77% 29.68 in 6.2 mi South 15.0 mph - N/A   Scattered Clouds
4:20 PM 53.6 °F 46.4 °F 77% 29.68 in 6.2 mi South 13.8 mph 25.3 mph N/A   Scattered Clouds
4:50 PM 53.6 °F 46.4 °F 77% 29.68 in 6.2 mi SSW 13.8 mph 25.3 mph N/A   Mostly Cloudy
5:20 PM 53.6 °F 46.4 °F 77% 29.68 in 6.2 mi SSW 17.3 mph - N/A   Mostly Cloudy
5:50 PM 53.6 °F 46.4 °F 77% 29.65 in 6.2 mi SSW 17.3 mph - N/A   Mostly Cloudy
6:20 PM 53.6 °F 46.4 °F 77% 29.65 in 6.2 mi SSW 12.7 mph - N/A   Mostly Cloudy
6:50 PM 51.8 °F 44.6 °F 76% 29.65 in 6.2 mi SW 10.4 mph - N/A   Scattered Clouds
7:20 PM 51.8 °F 44.6 °F 76% 29.65 in 6.2 mi SW 10.4 mph - N/A   Scattered Clouds
7:50 PM 51.8 °F 44.6 °F 76% 29.68 in 6.2 mi SSW 8.1 mph - N/A   Scattered Clouds
8:00 PM 51 °F 44 °F 70% 29.69 in 9 mi SSW 8.1 mph - -   Partly Cloudy
8:20 PM 51.8 °F 44.6 °F 76% 29.68 in 6.2 mi SSW 8.1 mph - N/A   Scattered Clouds
8:50 PM 51.8 °F 44.6 °F 76% 29.68 in 6.2 mi WSW 5.8 mph - N/A   Scattered Clouds
9:20 PM 51.8 °F 44.6 °F 76% 29.68 in 6.2 mi WSW 5.8 mph - N/A   Scattered Clouds
9:50 PM 51.8 °F 41.0 °F 67% 29.68 in 6.2 mi SSW 8.1 mph - N/A   Scattered Clouds
10:20 PM 51.8 °F 41.0 °F 67% 29.68 in 6.2 mi SW 5.8 mph - N/A   Scattered Clouds
10:50 PM 50.0 °F 42.8 °F 76% 29.71 in 6.2 mi WSW 6.9 mph - N/A   Scattered Clouds
11:20 PM 50.0 °F 42.8 °F 76% 29.71 in 6.2 mi WSW 6.9 mph - N/A   Scattered Clouds
11:50 PM 50.0 °F 42.8 °F 76% 29.71 in 6.2 mi SSW 4.6 mph - N/A   Scattered Clouds